Temperature
25 24 23 22 22 22 23 25 25 25 24 24 24 23 22 22 21 19 19 19 19 20 19 19 19 19 19 19 19 19 19 19 19 19 19 18 18 19 18 18 18 18 18 18 18 18 18 18 18
25 25 24 23 22 22 23 25 25 25 24 24 23 23 22 20 19 19 19 19 20 20 20 20 19 19 19 19 19 19 19 19 19 19 18 18 18 18 18 18 18 18 18 18 18 18 18 18 18
25 25 24 22 23 23 24 25 25 26 25 25 24 23 22 20 19 20 20 20 20 20 20 20 20 19 19 19 19 19 19 19 19 18 18 18 18 18 18 18 18 18 18 18 18 18 18 18 18
26 25 24 23 24 25 26 26 26 26 25 24 23 23 22 21 21 20 20 20 20 20 20 20 20 19 19 19 19 19 19 18 18 18 18 18 18 18 18 18 18 18 18 18 18 18 18 18 17
27 26 23 23 25 26 27 27 26 25 25 24 23 22 21 21 21 21 20 20 21 20 20 20 20 19 19 19 19 19 19 18 18 18 18 18 18 18 18 18 18 18 18 18 18 18 18 17 17
27 24 23 24 26 27 27 27 26 25 24 23 22 22 21 21 21 21 21 21 21 21 20 20 20 20 19 19 19 19 19 19 18 18 18 18 18 18 18 18 18 18 18 18 18 18 18 17 17
27 24 24 25 26 27 27 27 26 25 24 24 23 21 21 21 21 21 21 21 21 20 20 20 20 20 19 19 19 19 19 19 18 18 18 18 18 18 18 18 18 18 18 18 18 18 18 17 17
29 24 25 25 26 26 27 27 26 25 25 24 23 22 21 21 21 21 20 20 20 20 20 20 20 19 19 19 19 19 19 18 18 18 18 18 18 18 18 18 18 18 18 18 18 18 18 17 17
30 25 25 26 27 27 27 27 26 26 25 24 24 23 22 22 21 21 20 20 20 20 20 20 20 19 19 19 19 19 19 19 18 18 18 18 18 18 18 18 18 18 18 18 18 18 18 17 17
29 25 27 28 28 27 28 27 27 26 24 24 23 23 22 22 21 21 21 20 20 20 20 20 20 19 19 19 19 19 19 18 18 18 18 18 18 18 18 18 18 18 18 18 18 18 17 17 17
29 27 29 29 30 29 28 27 27 25 23 23 23 22 22 22 22 22 21 21 21 20 20 20 19 19 19 19 19 19 19 18 18 18 18 18 18 18 18 18 18 18 18 18 18 18 18 17 17
30 30 31 30 30 30 29 28 26 25 24 25 24 23 23 22 22 22 22 21 21 21 20 20 19 19 19 19 19 19 19 18 18 18 18 18 18 18 18 18 18 18 18 18 18 18 18 18 18
30 30 31 31 30 30 29 28 27 25 25 24 24 23 23 23 23 22 22 22 21 21 21 20 20 19 19 19 19 19 19 18 18 18 18 18 18 18 18 18 18 18 18 18 18 18 18 18 18
30 30 30 30 30 29 28 27 26 25 25 24 24 23 23 23 23 23 22 22 21 21 21 20 20 20 19 19 19 19 19 19 19 18 18 18 18 18 18 18 18 18 18 18 18 18 18 18 18
31 29 29 29 29 29 28 26 26 25 25 24 24 24 24 23 23 23 23 22 22 21 21 20 20 20 19 19 19 19 19 19 19 19 18 18 18 18 18 18 18 18 18 18 18 18 18 18 17
29 28 27 29 29 29 27 25 26 25 25 24 24 24 24 24 23 23 23 23 22 22 21 21 20 20 20 20 19 19 19 19 19 19 18 18 18 18 18 18 18 18 18 18 18 18 18 18 18
27 27 27 28 29 28 27 25 26 26 25 24 24 24 24 24 24 23 23 23 22 22 21 21 20 20 20 20 19 19 19 19 19 19 19 19 18 18 18 18 18 18 18 18 18 18 18 18 18
26 27 28 28 29 28 27 26 26 26 26 25 25 24 24 24 24 24 23 23 22 22 22 21 21 20 20 20 19 19 19 19 19 19 19 19 19 18 18 18 18 18 18 18 18 18 18 18 18
28 28 28 29 29 28 27 26 26 26 26 25 25 24 24 24 24 24 23 23 22 22 22 21 21 21 20 20 20 19 19 19 19 19 19 19 19 18 18 18 18 18 18 18 18 18 18 18 18
29 28 28 29 30 29 27 26 26 26 26 26 25 24 24 24 24 24 23 23 22 22 22 21 21 21 20 20 20 20 19 19 19 19 19 18 18 18 18 18 18 18 18 18 18 18 18 18 18
29 28 29 29 28 28 27 26 26 26 26 26 26 25 25 25 24 24 23 23 23 22 22 22 21 21 21 20 20 19 19 19 19 19 19 19 18 18 18 18 18 18 18 18 18 18 18 18 18
28 29 30 30 27 25 26 24 25 25 25 25 26 25 25 25 25 24 24 23 23 23 22 22 22 21 21 20 20 20 20 20 19 19 19 19 19 18 18 18 18 18 18 18 18 18 18 18 18
29 30 30 29 27 25 25 24 24 24 24 25 25 26 26 25 25 25 24 24 24 23 23 22 22 21 21 20 20 20 20 20 19 19 19 19 19 18 18 18 18 18 18 18 18 18 18 18 18
30 29 27 24 23 24 25 24 24 23 24 25 25 26 26 26 25 25 25 24 24 23 23 22 22 22 21 21 20 20 20 20 19 19 19 19 19 19 18 18 18 18 18 18 18 18 18 18 18
28 25 24 24 22 23 24 25 23 25 26 26 26 26 26 26 25 25 24 24 24 24 23 23 22 22 21 21 21 20 20 20 19 19 19 19 19 19 19 18 18 18 18 18 18 18 18 18 18
27 24 23 24 23 23 24 25 25 27 27 28 27 27 26 26 26 25 25 25 24 24 24 23 23 22 22 21 21 20 20 20 19 19 19 19 19 19 19 18 18 18 18 18 18 18 18 18 18
28 25 23 22 23 23 23 24 26 27 27 27 27 26 26 26 26 26 25 25 25 24 24 23 23 23 22 22 21 20 20 20 20 19 19 19 19 19 19 19 18 18 18 18 18 18 18 17 17
27 26 21 22 23 23 24 24 24 26 26 26 25 25 25 26 26 26 26 25 25 25 24 24 23 23 23 22 21 21 20 20 20 19 19 19 19 19 19 19 19 18 18 18 18 18 17 17 17
28 27 23 20 21 22 23 24 25 25 25 25 25 25 25 25 26 26 26 26 25 25 24 24 23 23 23 22 21 21 20 20 20 20 19 19 19 19 19 19 19 18 18 18 18 18 17 17 17
27 26 23 23 23 20 22 23 26 26 25 25 25 25 25 26 26 26 25 25 24 24 24 24 23 23 23 22 21 21 20 20 20 20 20 19 19 19 19 19 18 18 18 18 18 17 17 17 17
Wind_Speed
14 11 5 2 3 5 6 6 9 10 7 9 11 10 9 7 6 8 5 11 12 10 12 14 15 15 15 15 15 15 15 15 16 16 16 16 15 15 15 15 15 14 14 14 14 14 14 14 15
10 8 3 2 5 5 5 7 13 12 12 13 13 13 10 9 9 12 8 11 12 12 12 14 15 15 15 15 14 14 14 14 15 15 15 14 14 14 14 14 14 13 13 13 13 13 13 14 14
9 6 3 3 3 6 6 10 16 14 12 10 7 8 7 8 11 9 10 15 11 11 13 15 16 15 15 15 14 14 14 14 14 14 14 13 13 13 13 13 13 12 12 12 12 12 13 13 13
5 2 3 5 5 5 9 12 16 15 11 10 10 8 6 7 8 12 17 15 13 10 13 15 16 16 15 14 14 14 14 14 13 13 13 12 12 12 12 12 12 11 11 11 11 12 12 12 11
2 3 5 4 5 6 11 15 14 12 7 10 12 9 6 6 16 19 18 16 14 10 12 15 16 16 15 14 14 13 13 13 13 13 12 12 12 12 11 11 11 11 11 11 11 11 11 11 9
2 4 5 4 6 7 9 12 14 16 16 14 13 10 5 10 17 18 16 14 13 12 12 15 16 15 15 14 13 13 12 12 12 12 12 11 11 11 11 10 10 10 10 10 11 10 9 9 8
4 4 5 5 7 7 9 10 12 14 15 10 11 9 6 10 14 16 14 13 12 12 12 12 14 15 15 14 13 12 12 11 11 11 11 11 10 10 10 10 10 10 10 10 10 9 8 7 6
6 5 4 5 8 7 8 8 11 14 11 14 9 9 9 11 14 15 14 12 12 10 9 10 11 12 12 13 13 12 12 11 11 11 11 10 10 9 9 9 9 10 10 9 9 8 7 6 5
5 6 4 6 8 7 9 11 8 9 12 7 5 9 13 17 18 16 13 10 10 10 8 8 9 10 11 11 11 12 11 11 10 10 10 9 8 8 8 8 9 9 9 8 8 7 6 5 3
5 6 7 7 9 10 12 13 10 8 11 10 13 13 16 17 18 17 15 14 12 11 10 9 9 10 11 10 10 9 9 9 9 8 8 8 7 7 8 9 9 8 8 7 7 6 5 4 2
5 7 6 6 10 12 12 10 8 12 10 16 20 19 18 16 15 15 15 14 14 13 12 10 9 10 10 7 9 8 7 8 8 9 9 8 7 6 7 7 7 7 7 5 5 5 4 4 3
4 4 7 7 8 10 11 9 8 9 12 17 19 18 15 16 14 14 13 12 11 12 12 10 9 9 9 9 8 8 6 6 7 9 11 8 5 5 6 6 6 6 6 5 4 4 5 5 5
5 3 4 6 9 10 12 11 11 10 15 16 17 16 14 14 12 11 11 11 11 11 11 11 10 9 8 7 6 7 7 7 9 9 11 11 7 5 5 5 7 7 7 6 5 5 4 4 5
1 3 4 6 8 9 14 12 10 12 17 17 16 14 14 13 11 10 10 10 10 11 11 10 10 8 8 6 5 5 7 8 8 9 11 13 10 7 6 4 5 6 8 8 6 5 3 3 3
2 4 3 3 5 6 12 8 11 18 18 17 16 14 13 11 12 13 13 12 12 11 10 10 9 8 7 7 5 5 6 8 6 8 11 12 11 10 7 5 4 6 8 8 5 4 3 3 3
5 3 1 3 4 5 9 7 10 17 18 16 15 14 12 11 12 13 13 11 11 11 11 10 9 8 7 6 4 4 5 6 6 8 10 11 12 11 8 4 4 6 6 5 3 3 3 3 3
3 1 4 4 5 5 6 7 12 15 17 15 15 14 13 11 10 11 13 13 12 12 11 9 8 8 7 6 4 4 4 4 6 7 8 10 12 12 9 5 5 6 4 3 4 3 3 3 3
5 3 3 5 5 6 6 8 14 16 16 16 15 13 13 14 13 12 12 12 11 11 10 9 8 8 7 5 3 2 2 3 4 6 8 10 10 12 9 5 6 6 4 3 3 3 3 3 3
7 4 5 6 5 5 7 9 15 16 15 14 13 13 14 14 11 12 12 13 11 10 10 9 8 7 6 4 3 3 3 3 3 4 8 10 9 10 8 4 4 4 4 5 5 3 3 3 2
4 3 3 3 2 4 5 6 10 14 17 17 17 16 15 12 10 12 11 12 12 12 11 10 9 9 7 5 4 3 3 3 3 3 5 8 8 9 8 5 5 4 4 4 4 4 2 3 3
5 4 4 3 2 3 5 1 4 7 8 11 15 15 16 17 16 15 14 13 12 12 12 11 10 9 8 7 4 2 1 0 0 2 2 4 7 7 7 7 5 5 5 5 5 5 5 4 3
6 6 4 2 3 2 3 2 6 8 7 11 13 14 16 16 15 14 14 14 14 14 12 10 10 9 8 7 6 6 5 4 4 3 3 3 5 6 7 7 7 5 4 5 5 5 4 4 4
7 5 2 1 3 1 2 3 6 5 8 13 15 16 17 17 17 17 16 15 13 13 12 10 10 9 8 7 8 7 5 4 3 2 3 3 3 4 5 6 5 5 5 5 5 4 4 4 4
3 3 6 6 5 1 4 4 6 8 14 15 15 16 16 16 16 15 14 12 10 11 11 11 11 10 9 9 8 7 7 5 4 4 4 3 2 2 3 4 4 4 4 5 5 5 5 5 5
3 6 5 5 5 6 5 3 9 11 12 16 18 17 16 15 15 14 14 13 12 12 12 12 12 10 10 9 8 8 7 7 6 5 5 4 3 2 3 3 3 3 4 4 4 5 5 5 5
4 10 8 5 5 6 5 5 8 9 10 12 14 15 15 14 14 15 15 15 14 14 13 12 12 10 10 10 8 7 7 6 5 5 4 5 4 4 4 4 4 4 4 4 4 4 5 5 5
4 5 10 8 3 1 6 6 8 2 4 7 11 13 14 15 15 15 14 14 13 14 13 14 13 11 10 10 9 7 7 6 6 5 5 4 3 3 3 3 3 3 3 4 3 4 5 4 5
8 8 7 6 5 3 5 5 5 4 5 8 11 13 12 13 13 13 13 14 13 13 12 12 12 12 10 10 9 8 7 7 6 5 5 5 4 3 3 3 3 3 3 4 3 3 4 4 5
1 3 5 6 6 7 4 7 7 9 9 11 12 13 14 13 13 13 12 12 11 10 11 11 12 11 10 10 8 7 7 7 6 5 5 5 4 4 3 3 3 3 3 3 3 3 3 4 4
6 6 7 5 4 6 5 8 7 6 8 10 12 12 13 14 14 13 11 10 9 10 10 11 11 11 10 10 8 8 7 7 6 6 6 5 5 4 3 3 2 2 1 2 2 3 3 3 3
Wind_Direction
155 151 146 141 60 55 80 87 97 87 71 72 80 87 85 67 100 129 144 143 140 139 136 128 123 119 115 113 111 110 109 109 108 106 107 108 109 111 112 114 115 118 119 118 118 119 120 121 121
155 152 144 85 81 86 90 102 96 101 118 107 86 85 77 71 88 116 130 146 143 138 135 131 127 123 119 116 116 116 115 115 113 112 113 113 113 114 115 115 116 119 121 122 123 124 125 125 124
164 172 123 80 98 130 128 115 112 110 111 100 95 75 77 107 119 135 149 148 140 132 133 134 131 128 124 121 121 120 119 118 117 117 118 118 118 117 117 118 120 123 125 128 130 131 131 129 127
161 126 60 75 107 132 128 127 121 112 92 85 94 77 78 117 129 140 146 146 136 132 135 138 134 131 128 125 124 124 123 122 121 121 121 122 123 121 121 122 125 127 128 131 134 137 136 134 134
104 90 64 65 101 112 119 126 124 111 100 98 97 99 87 98 122 136 145 144 139 138 138 139 137 134 133 131 130 129 127 126 126 124 124 124 125 124 125 125 128 130 132 134 136 140 142 141 141
69 73 78 86 101 108 115 121 110 104 112 111 108 107 105 130 134 143 145 143 141 140 140 142 141 139 137 135 135 134 132 131 130 129 129 129 130 129 129 130 131 134 136 138 139 143 147 147 146
125 101 121 123 113 113 122 125 123 126 127 130 127 109 122 145 147 145 144 141 141 144 144 144 145 144 143 142 141 140 138 137 137 137 136 136 136 135 135 136 136 137 138 140 143 148 151 153 154
148 113 102 117 121 123 133 118 132 133 123 133 132 128 151 161 145 140 140 140 143 148 151 150 149 149 148 147 147 146 147 146 146 147 145 145 144 144 144 143 145 145 144 147 149 154 157 162 168
119 97 132 156 143 145 134 112 116 115 126 142 118 130 147 144 138 137 137 140 151 158 162 159 158 157 156 155 157 157 156 156 155 155 153 150 147 148 153 155 155 155 155 156 157 160 168 176 183
112 133 179 172 150 147 139 130 129 112 115 109 110 121 135 141 143 149 154 159 165 170 175 171 167 169 169 167 162 166 165 166 167 169 165 161 163 166 167 169 166 164 165 165 165 172 180 190 205
126 150 153 138 139 140 137 134 122 125 132 144 143 146 148 149 152 157 163 167 171 171 173 173 171 171 174 168 165 177 180 179 185 188 184 175 174 180 180 175 176 178 176 173 175 179 190 204 223
100 132 135 142 138 132 137 134 124 137 156 155 150 151 153 157 163 167 168 170 166 165 171 171 171 170 173 168 175 181 186 188 196 198 190 178 172 176 181 179 182 187 185 184 195 200 208 221 232
89 99 116 132 123 124 120 126 124 137 144 148 149 152 160 165 170 173 167 159 153 156 162 165 165 163 166 166 180 180 192 195 196 189 188 181 174 176 178 186 193 197 195 194 201 207 211 221 233
184 116 121 128 123 125 120 122 116 144 147 152 158 164 170 172 168 162 159 157 156 157 158 159 158 159 156 164 169 168 182 193 192 189 187 182 178 177 175 181 190 200 202 204 201 205 209 220 227
48 78 69 133 130 134 116 110 144 153 154 158 166 172 173 171 164 164 167 165 161 160 160 161 161 158 158 162 166 161 169 179 185 192 189 183 179 177 175 177 188 200 200 198 197 205 215 219 225
25 60 153 238 155 163 121 149 170 158 158 165 172 174 171 168 167 166 165 163 161 158 161 168 166 162 167 171 171 161 166 171 184 187 186 185 181 181 178 178 192 198 191 184 179 189 203 225 225
12 207 237 245 203 168 137 160 175 168 164 171 175 174 170 168 170 169 169 166 165 164 163 167 164 166 173 175 175 171 170 178 188 185 183 186 186 185 182 185 193 190 178 185 197 188 193 210 224
255 254 248 218 212 167 155 165 170 175 174 177 176 175 172 174 179 173 170 167 164 165 164 163 166 172 171 170 166 169 163 185 187 187 192 190 190 189 186 191 194 182 172 192 195 194 201 205 213
227 250 256 248 207 159 163 163 173 177 177 176 179 179 178 182 180 170 169 167 164 165 166 165 166 177 168 166 174 176 196 203 202 204 201 196 195 190 185 187 183 179 183 199 199 188 197 212 179
241 260 274 285 174 145 157 172 182 181 184 180 181 182 181 177 172 174 172 171 172 174 175 173 173 178 180 182 181 179 180 201 204 210 201 199 197 193 189 183 186 185 188 199 201 190 182 211 180
276 226 217 221 16 46 105 42 200 204 190 183 185 183 180 180 180 181 179 179 177 181 182 183 181 181 186 181 167 161 136 87 201 212 205 204 194 193 193 191 189 191 190 202 207 195 189 210 220
268 242 205 173 98 275 130 193 243 203 200 197 190 186 186 185 181 183 182 183 186 188 184 181 179 179 183 176 173 178 186 197 213 205 204 209 199 198 202 200 196 192 192 202 215 200 192 192 218
234 234 192 144 128 49 9 142 264 195 202 210 198 194 193 187 182 184 185 187 188 184 181 181 176 180 184 182 180 183 193 199 203 196 195 206 209 209 211 204 196 196 199 205 212 203 203 201 206
230 42 27 47 71 351 251 168 250 208 203 203 202 200 194 186 182 183 184 179 180 179 179 178 178 185 184 184 184 187 192 191 187 197 200 210 216 227 227 207 200 201 203 208 212 211 215 218 217
67 82 30 356 4 252 256 186 240 227 206 196 194 195 189 183 178 176 176 177 180 180 180 179 179 185 185 185 189 193 194 190 194 197 200 198 204 218 228 217 206 209 212 216 215 215 222 221 223
205 139 158 198 224 272 309 232 252 234 204 192 187 182 177 177 176 178 180 182 183 182 179 178 182 185 185 188 192 192 190 189 193 196 192 195 199 210 217 211 210 212 215 222 218 225 232 230 232
189 185 173 150 178 261 284 287 309 352 165 163 164 163 169 174 176 180 179 181 181 181 183 182 183 185 187 189 190 191 190 189 193 194 190 194 203 212 211 210 209 217 222 228 222 231 241 237 237
177 167 103 122 155 241 288 275 241 234 185 161 155 160 165 171 174 177 179 179 182 185 182 179 183 186 188 187 190 195 192 192 191 188 190 192 201 206 201 213 213 221 232 235 225 237 246 241 248
187 121 120 130 154 161 228 267 235 201 185 168 161 161 161 165 173 181 178 176 176 173 175 180 184 184 186 187 188 183 182 183 179 180 187 190 197 198 203 213 217 229 243 245 234 242 244 239 250
181 181 149 157 219 171 175 259 268 196 169 154 157 159 159 164 171 175 169 163 166 172 175 179 183 183 185 181 177 177 178 178 180 184 189 187 192 197 196 193 198 218 242 256 254 261 258 243 246
Height
1509 1510 1511 1513 1516 1525 1526 1519 1513 1514 1516 1517 1516 1518 1521 1525 1530 1540 1539 1539 1541 1541 1543 1544 1544 1545 1545 1546 1546 1547 1547 1548 1548 1549 1550 1551 1552 1553 1553 1554 1555 1555 1556 1557 1558 1559 1560 1561 1561
1509 1509 1512 1514 1522 1537 1531 1518 1516 1516 1518 1518 1520 1521 1523 1529 1531 1534 1537 1540 1542 1543 1544 1545 1546 1546 1547 1547 1548 1548 1549 1549 1550 1550 1551 1552 1553 1554 1554 1555 1556 1556 1557 1558 1559 1560 1561 1562 1563
1510 1510 1513 1516 1525 1532 1528 1518 1516 1517 1518 1517 1521 1524 1527 1532 1534 1536 1538 1541 1543 1544 1545 1546 1547 1547 1548 1548 1549 1549 1550 1550 1551 1552 1553 1553 1554 1555 1555 1556 1556 1557 1558 1559 1560 1561 1562 1563 1564
1510 1512 1514 1521 1525 1518 1515 1515 1515 1517 1520 1521 1522 1527 1531 1534 1535 1537 1540 1542 1544 1545 1546 1547 1548 1548 1549 1549 1550 1551 1551 1552 1552 1553 1554 1554 1555 1555 1556 1557 1557 1558 1559 1560 1561 1562 1563 1564 1565
1510 1512 1519 1527 1523 1515 1512 1514 1514 1516 1520 1524 1523 1529 1534 1537 1537 1539 1541 1544 1545 1546 1547 1548 1549 1549 1550 1550 1551 1552 1552 1553 1553 1554 1555 1555 1556 1556 1557 1557 1558 1559 1560 1560 1561 1562 1564 1565 1566
1511 1512 1528 1533 1523 1515 1515 1515 1516 1519 1523 1526 1527 1531 1537 1539 1539 1541 1543 1545 1546 1547 1548 1549 1550 1550 1551 1551 1552 1553 1553 1554 1554 1555 1556 1556 1557 1557 1558 1558 1559 1560 1561 1561 1562 1563 1565 1566 1567
1512 1516 1526 1526 1524 1520 1517 1516 1516 1520 1524 1527 1528 1532 1538 1540 1541 1543 1545 1547 1548 1549 1549 1550 1551 1551 1552 1552 1553 1554 1554 1555 1555 1556 1557 1557 1558 1558 1559 1559 1560 1561 1562 1562 1563 1565 1566 1567 1568
1508 1514 1523 1524 1524 1521 1516 1516 1518 1520 1524 1528 1529 1531 1537 1540 1542 1544 1546 1548 1549 1550 1551 1551 1552 1552 1553 1553 1554 1555 1555 1556 1557 1557 1558 1559 1559 1559 1560 1561 1561 1562 1563 1563 1564 1566 1567 1568 1569
1506 1518 1526 1522 1519 1518 1515 1516 1520 1522 1524 1527 1529 1530 1534 1539 1542 1544 1546 1548 1549 1551 1551 1552 1552 1553 1554 1554 1555 1556 1556 1557 1558 1558 1559 1560 1560 1561 1561 1562 1562 1563 1564 1564 1565 1566 1568 1569 1570
1505 1519 1516 1509 1508 1512 1514 1515 1519 1523 1526 1528 1531 1534 1537 1540 1542 1544 1545 1547 1549 1550 1551 1552 1553 1554 1555 1555 1556 1557 1557 1558 1559 1559 1560 1561 1561 1562 1562 1563 1564 1564 1565 1565 1566 1567 1569 1570 1571
1503 1510 1506 1505 1505 1508 1512 1516 1518 1522 1527 1527 1529 1533 1537 1540 1542 1543 1545 1546 1548 1550 1551 1552 1553 1554 1555 1556 1557 1557 1558 1559 1560 1560 1561 1561 1562 1563 1563 1564 1564 1565 1566 1566 1567 1568 1569 1570 1571
1502 1503 1503 1505 1506 1508 1511 1515 1519 1520 1524 1526 1528 1532 1536 1539 1541 1543 1544 1546 1548 1549 1550 1552 1553 1554 1555 1556 1557 1558 1558 1559 1560 1561 1561 1562 1562 1563 1564 1565 1565 1566 1566 1567 1568 1569 1570 1570 1571
1502 1505 1504 1506 1506 1507 1510 1514 1518 1522 1525 1528 1531 1534 1536 1538 1540 1542 1544 1546 1547 1548 1550 1551 1552 1553 1555 1556 1557 1558 1558 1559 1560 1561 1561 1562 1563 1563 1564 1565 1566 1566 1567 1567 1568 1569 1570 1571 1571
1503 1503 1505 1507 1507 1509 1511 1515 1518 1524 1525 1529 1532 1534 1536 1538 1540 1542 1544 1546 1547 1548 1549 1551 1552 1553 1554 1555 1556 1557 1558 1559 1560 1560 1561 1562 1563 1563 1564 1565 1566 1566 1567 1568 1569 1569 1570 1571 1571
1504 1506 1508 1508 1508 1511 1512 1520 1519 1522 1525 1529 1531 1533 1535 1538 1539 1541 1543 1544 1546 1548 1549 1550 1552 1553 1554 1555 1556 1557 1558 1559 1559 1560 1561 1562 1562 1563 1564 1564 1565 1566 1567 1567 1568 1569 1569 1570 1571
1506 1513 1520 1511 1508 1510 1515 1529 1521 1521 1524 1527 1530 1533 1535 1537 1539 1540 1542 1543 1545 1547 1548 1549 1551 1552 1553 1554 1555 1556 1557 1558 1559 1559 1560 1561 1562 1562 1563 1564 1565 1565 1566 1567 1567 1568 1568 1569 1570
1517 1525 1523 1514 1506 1508 1514 1523 1520 1521 1522 1525 1528 1531 1533 1536 1538 1539 1541 1542 1544 1545 1547 1548 1549 1550 1551 1552 1554 1555 1556 1556 1557 1558 1559 1560 1561 1562 1562 1563 1564 1564 1565 1566 1566 1567 1567 1568 1568
1527 1523 1519 1516 1507 1507 1513 1516 1516 1519 1521 1523 1526 1528 1531 1533 1535 1537 1540 1541 1543 1545 1546 1547 1548 1549 1550 1551 1552 1553 1554 1555 1556 1557 1558 1559 1560 1560 1561 1562 1563 1563 1564 1564 1565 1565 1566 1566 1567
1512 1515 1516 1509 1502 1507 1512 1514 1514 1516 1518 1521 1524 1526 1528 1530 1533 1536 1538 1540 1541 1543 1544 1545 1546 1547 1548 1549 1550 1551 1552 1553 1554 1555 1556 1557 1558 1559 1560 1560 1561 1562 1562 1563 1563 1564 1564 1564 1565
1507 1514 1514 1506 1500 1506 1512 1514 1511 1512 1513 1516 1519 1522 1525 1528 1531 1533 1535 1537 1539 1540 1542 1543 1544 1546 1547 1548 1549 1550 1551 1551 1552 1553 1554 1555 1556 1557 1558 1558 1559 1559 1560 1561 1561 1561 1562 1562 1562
1507 1511 1511 1510 1506 1506 1513 1522 1518 1514 1514 1516 1517 1518 1521 1524 1526 1530 1532 1534 1536 1538 1540 1541 1542 1544 1545 1546 1547 1549 1550 1550 1551 1551 1551 1553 1554 1555 1556 1557 1557 1557 1558 1558 1559 1559 1559 1559 1560
1511 1499 1499 1503 1516 1527 1520 1541 1524 1516 1515 1514 1515 1516 1518 1520 1523 1526 1529 1532 1533 1536 1538 1540 1541 1542 1543 1545 1546 1546 1547 1548 1549 1550 1550 1551 1552 1553 1554 1554 1555 1555 1556 1556 1556 1556 1556 1557 1557
1499 1493 1496 1501 1513 1526 1524 1536 1530 1517 1518 1512 1510 1512 1513 1516 1519 1523 1525 1528 1531 1534 1536 1538 1539 1540 1542 1543 1544 1545 1546 1547 1548 1549 1549 1549 1550 1551 1551 1552 1552 1553 1553 1553 1553 1553 1554 1553 1553
1489 1495 1502 1512 1524 1540 1527 1533 1532 1517 1508 1504 1505 1507 1509 1513 1516 1520 1524 1527 1530 1532 1534 1535 1537 1538 1540 1541 1542 1543 1544 1546 1546 1547 1547 1548 1548 1549 1549 1549 1550 1550 1550 1550 1550 1550 1551 1551 1551
1493 1516 1539 1542 1551 1546 1524 1526 1523 1498 1493 1494 1497 1501 1505 1509 1513 1517 1521 1524 1527 1529 1531 1533 1535 1536 1538 1539 1541 1542 1543 1544 1545 1545 1546 1546 1546 1547 1547 1547 1547 1547 1547 1547 1547 1547 1547 1547 1547
1497 1512 1541 1552 1554 1544 1525 1525 1506 1486 1485 1487 1492 1497 1502 1507 1511 1514 1517 1521 1524 1527 1529 1531 1533 1535 1536 1538 1539 1540 1541 1542 1543 1544 1544 1544 1545 1545 1545 1545 1545 1545 1545 1544 1544 1544 1544 1544 1543
1497 1506 1509 1530 1536 1543 1534 1516 1497 1484 1485 1487 1491 1496 1500 1503 1507 1511 1514 1518 1522 1524 1527 1529 1531 1533 1534 1536 1537 1538 1539 1540 1541 1542 1542 1543 1543 1543 1543 1543 1542 1542 1542 1542 1541 1541 1540 1540 1540
1485 1493 1515 1530 1545 1550 1536 1525 1515 1496 1491 1489 1491 1493 1496 1500 1505 1508 1512 1515 1519 1522 1524 1527 1529 1531 1532 1534 1535 1537 1538 1539 1539 1540 1540 1541 1541 1541 1541 1541 1540 1540 1539 1539 1538 1537 1537 1536 1536
1489 1495 1508 1525 1530 1545 1546 1529 1492 1488 1485 1486 1488 1490 1493 1498 1502 1506 1509 1512 1516 1520 1523 1525 1527 1529 1531 1532 1534 1535 1536 1537 1538 1538 1538 1538 1539 1538 1538 1538 1538 1537 1537 1536 1535 1535 1534 1533 1533
1482 1490 1504 1522 1527 1532 1537 1523 1481 1481 1480 1482 1486 1489 1492 1495 1499 1502 1507 1510 1514 1517 1520 1523 1525 1527 1529 1530 1532 1533 1534 1535 1536 1536 1537 1537 1537 1536 1536 1536 1536 1535 1535 1534 1533 1532 1531 1530 1529